Location: Kitchener
(43.4500°N, 80.5000°W)
Time: 02:28:51
(UTC-05:00)

N. Korean satellite - Visible Passes

Search period start: 21 November 2018 00:00
Search period end: 01 December 2018 00:00
Orbit: 456 x 512 km, 97.2° (Epoch: 20 November)

Date Brightness Start Highest point End Pass type
(mag) Time Alt. Az. Time Alt. Az. Time Alt. Az.
21 Nov 9.7 05:53:43 10° NE 05:56:07 18° E 05:58:30 10° SE visible
21 Nov 7.0 18:02:49 10° S 18:06:22 63° WSW 18:09:54 10° NNW visible
22 Nov 6.5 17:38:22 10° SSE 17:41:53 60° ENE 17:45:21 10° N visible
23 Nov 6.9 06:37:15 10° NNE 06:40:41 67° E 06:44:06 10° S visible
23 Nov 9.6 18:48:31 10° SW 18:50:57 17° W 18:53:21 10° NW visible
24 Nov 8.6 06:13:00 10° NNE 06:16:06 31° E 06:19:12 10° SSE visible
24 Nov 8.4 18:23:03 10° SSW 18:26:18 33° W 18:29:32 10° NNW visible
25 Nov 9.8 05:49:16 10° NE 05:51:26 16° E 05:53:36 10° SE visible
25 Nov 6.7 17:58:12 10° S 18:01:44 72° WSW 18:05:14 10° NNW visible
26 Nov 6.6 17:33:48 10° SSE 17:37:14 51° ENE 17:40:39 10° N visible
27 Nov 7.2 06:32:36 10° NNE 06:36:00 58° E 06:39:26 10° S visible
27 Nov 9.4 18:43:41 10° SW 18:46:15 19° W 18:48:50 10° NW visible
28 Nov 8.8 06:08:23 10° NE 06:11:24 27° E 06:14:25 10° SSE visible
28 Nov 8.1 18:18:19 10° SSW 18:21:37 38° W 18:24:53 10° NNW visible
29 Nov 9.8 05:44:48 10° ENE 05:46:43 14° E 05:48:38 10° SE visible
29 Nov 6.5 17:53:32 10° S 17:57:02 83° WSW 18:00:31 10° NNW visible
30 Nov 6.4 06:52:22 10° N 06:55:50 73° WNW 06:59:18 10° SSW visible
30 Nov 6.8 17:29:12 10° SSE 17:32:33 44° ENE 17:35:52 10° N visible
30 Nov 10.1 19:05:18 10° WSW 19:06:14 11° W 19:07:10 10° WNW visible
